DECAYED

CZ-6A DEB, 61464 (Decayed)

Orbit data source: Space-Track

CZ-6A DEB, 61464 was space debris in LEO originally from a launch on Tue, 06 Aug 2024 UTC launched from the Taiyaun Space Center, China (TSC). Debris objects in space refer to the collection of defunct objects orbiting the Earth. Examples of debris include non-operational satellites, rocket bodies, and fragments generated from explosions, collisions, or faulty payload assembly.

Not visible in the next 10 days
Identifier
61464, 2024-140ZW
Orbit
Decayed
Country
Flag of CNCN / PRC
Related business
Manufacturer
SAST
Mission
Decayed spacecraft
Bus & Motor
Unknown
Mass
Unknown
Launch date (UTC)
2024-08-06 (2 years ago)
Launch vehicle
Unknown
Launch site
Taiyaun Space Center, China (TSC)
Object type
Payload
Rocket body
Debris
Shape & HBR
Unknown shape, 0.1 m
Radar Cross Section
Medium (>0.1 m² and <1 m²)

Expand to show TLE details & history
Last TLE update: 9 months ago

TLE from 9 months ago
0 CZ-6A DEB
1 61464U 24140ZW  25272.03869802  .06471929  00000-0  21184-1 0  9991
2 61464  88.9258 294.8753 0007975 261.7009  98.3368 15.86580938 56522
Epoch: 2025-09-29T00:55Z
TLE epoch observation values (Epoch: 2025-09-29T00:55:43.508Z)
Latitude
-0.00009°
Longitude
-87.10413°
Altitude
315.942 km
Speed
7.718 km/s
True Right ascension
19h 39m 30s
True Declination
0° 00' 00"
Sunlit
Object was in full shadow at epoch
Visualization orbit readout
Latitude
Unknown
Longitude
Unknown
Altitude
Unknown
Speed
Unknown
Apparent Right ascension
Unknown
Apparent Declination
Unknown
Sunlit
N/A
Visualization observer readout
Local Sidereal Time
07:20:11
Azimuth
Unknown
Elevation
Unknown
Doppler factor
Unknown
Orbital elements
Apogee altitude
313.927 km
Perigee altitude
303.261 km
Semi-major axis
6,686.731 km
Eccentricity
0.0008
Inclination
88.9258°
RAAN
294.8753°
Arg. of periapsis
261.7009°
True anomaly
98.42721°
Mean anomaly
98.3368°
Eccentric anomaly
98.38201°
Mean motion
3.96938 °/min
Orbital period
90.69 mins
BSTAR
0.021184
Loading maneuver chart data...
Computing Atmospheric mass density...
Loading historical data...
Loading historical data...
Loading historical data...
Loading historical data...
Loading historical data...
Loading historical data...
Loading historical data...

Documentation

Showing up to 5 results
|